{"data":{"norad_id":57762,"epoch":"2026-05-25T02:03:58.896576Z","epoch_age_seconds":70631,"freshness":"FRESH","line1":"1 57762U 23133F   26145.08609834  .00000039  00000+0  24378-4 0  9994","line2":"2 57762  81.0020  29.5887 0007337  71.5854 288.6100 13.85472459137834","mean_motion":13.85472459,"eccentricity":0.0007337,"inclination_deg":81.002,"raan_deg":29.5887,"arg_perigee_deg":71.5854,"mean_anomaly_deg":288.61,"bstar":2.4378e-5,"rev_number":13783,"period_min":103.93566401452,"perigee_km":939.16788914299,"apogee_km":949.91318616174,"semimajor_km":7322.6775376524,"source":"CELESTRAK","updated_at":"2026-05-25T13:38:00.236343Z"}}